Location: Newport
(44.6370°N, 124.0520°W)
Time: 00:06:54
(UTC-07:00)

ISS - Pass Details

Date: 08 October 2017
Orbit: 401 x 408 km, 51.6° (Epoch: 20 October)

Event Time Altitude Azimuth Distance (km) Brightness Sun altitude
Rises 19:53:47 0° 299° (WNW) 2,327 1.3 -13.4°
Reaches altitude 10° 19:56:02 10° 311° (NW) 1,467 -0.2 -13.8°
Maximum altitude 19:58:59 30° 15° (NNE) 757 -2.6 -14.3°
Enters shadow 20:00:11 23° 54° (NE) 912 -2.5 -14.5°
